Weather History for Ft Pierce, FL

Change the Weather History Date:

Thursday, April 25, 2013

  Actual Average Record
Temperature  
Mean Temperature 73 °F -  
Max Temperature 82 °F 83 °F 95 °F (1945)
Min Temperature 66 °F 62 °F 44 °F (2005)
Cooling Degree Days 8    
Growing Degree Days 23 (Base 50)    
Moisture  
Dew Point 61 °F    
Average Humidity 64    
Maximum Humidity 81    
Minimum Humidity 50    
Precipitation  
Precipitation 0.00 in - - ()
Sea Level Pressure  
Sea Level Pressure 30.17 in    
Wind  
Wind Speed 6 mph (East)    
Max Wind Speed 10 mph    
Max Gust Speed -    
Visibility 10 miles    
Events      
Averages and records for this station are not official NWS values.
T = Trace of Precipitation, MM = Missing Value Source: NWS Daily Summary

Daily Weather History Graph

Daily Weather History Graph

Search for Another Location

Airport:

Trip Planner

Search our weather history database for the weather conditions in past years. The results will help you decide how hot, cold, wet, or windy it might be!

Date:

Astronomy

Apr. 25, 2013 Rise Set
Actual Time 6:47 AM EDT 7:51 PM EDT
Civil Twilight 6:22 AM EDT 8:16 PM EDT
Nautical Twilight 5:54 AM EDT 8:45 PM EDT
Astronomical Twilight 5:24 AM EDT 9:14 PM EDT
Moon 8:00 PM EDT (4/25) 6:28 AM EDT (4/25)
Length of Visible Light 13h 53m
Length of Day
13h 04m
Full, 100% of the Moon is Illuminated
Apr 25
Full
Apr 25
Full
May 2
Last Quarter
May 9
New
May 18
First Quarter

Hourly Weather History & Observations

Time (EDT) Temp. Heat Index Dew Point Humidity Pressure Visibility Wind Dir Wind Speed Gust Speed Precip Events Conditions
12:53 AM 69.1 °F - 61.0 °F 75% 30.14 in 10.0 mi East 4.6 mph - N/A   Clear
1:53 AM 70.0 °F - 61.0 °F 73% 30.12 in 10.0 mi East 5.8 mph - N/A   Clear
2:53 AM 69.1 °F - 61.0 °F 75% 30.11 in 10.0 mi East 4.6 mph - N/A   Clear
3:53 AM 72.0 °F - 62.1 °F 71% 30.10 in 10.0 mi ESE 8.1 mph - N/A   Clear
4:53 AM 70.0 °F - 61.0 °F 73% 30.11 in 10.0 mi ESE 5.8 mph - N/A   Clear
5:53 AM 66.9 °F - 60.1 °F 79% 30.12 in 10.0 mi East 4.6 mph - N/A   Clear
6:53 AM 66.0 °F - 60.1 °F 81% 30.14 in 10.0 mi Calm Calm - N/A   Clear
7:53 AM 68.0 °F - 62.1 °F 81% 30.17 in 10.0 mi WNW 4.6 mph - N/A   Clear
8:53 AM 73.9 °F - 64.0 °F 71% 30.18 in 10.0 mi Calm Calm - N/A   Clear
9:53 AM 78.1 °F - 61.0 °F 56% 30.18 in 10.0 mi ESE 5.8 mph - N/A   Clear
10:53 AM 79.0 °F - 61.0 °F 54% 30.20 in 10.0 mi Variable 6.9 mph - N/A   Clear
11:53 AM 80.1 °F 81.1 °F 61.0 °F 52% 30.20 in 10.0 mi ESE 6.9 mph - N/A   Clear
12:53 PM 80.1 °F 80.9 °F 60.1 °F 50% 30.20 in 10.0 mi ESE 4.6 mph - N/A   Scattered Clouds
1:53 PM 80.1 °F 81.1 °F 61.0 °F 52% 30.20 in 10.0 mi East 9.2 mph - N/A   Scattered Clouds
2:53 PM 80.1 °F 80.9 °F 60.1 °F 50% 30.19 in 10.0 mi ENE 8.1 mph - N/A   Partly Cloudy
3:53 PM 80.1 °F 81.1 °F 61.0 °F 52% 30.17 in 10.0 mi Variable 6.9 mph - N/A   Partly Cloudy
4:53 PM 80.1 °F 81.1 °F 61.0 °F 52% 30.16 in 10.0 mi NE 5.8 mph - N/A   Clear
5:53 PM 78.1 °F - 61.0 °F 56% 30.17 in 10.0 mi NE 6.9 mph - N/A   Clear
6:53 PM 77.0 °F - 62.1 °F 60% 30.17 in 10.0 mi East 8.1 mph - N/A   Partly Cloudy
7:53 PM 73.9 °F - 62.1 °F 66% 30.17 in 10.0 mi East 4.6 mph - N/A   Clear
8:53 PM 73.0 °F - 62.1 °F 68% 30.19 in 10.0 mi East 6.9 mph - N/A   Clear
9:53 PM 73.9 °F - 61.0 °F 64% 30.20 in 10.0 mi East 9.2 mph - N/A   Clear
10:53 PM 73.0 °F - 61.0 °F 66% 30.21 in 10.0 mi East 10.4 mph - N/A   Clear
11:53 PM 72.0 °F - 61.0 °F 68% 30.20 in 10.0 mi ESE 8.1 mph - N/A   Clear